| time (UTC) | temp C | wind direction | speed KPH | gust KPH | rain 1hr cm | rain 24hr cm | rain mn cm | humidity % | barometer mb |
| 20260508171858 | 16 | 11 | 1.6 | 9.7 | 0.00 | 0.10 | 0.03 | 45 | 1013.4 |
| 20260508170405 | 16 | 29 | 1.6 | 4.8 | 0.00 | 0.10 | 0.03 | 46 | 1013.4 |
| 20260508164846 | 16 | 307 | 1.6 | 8.0 | 0.00 | 0.18 | 0.03 | 44 | 1013.6 |
| 20260508163328 | 16 | 40 | 1.6 | 6.4 | 0.00 | 0.18 | 0.03 | 47 | 1013.6 |
| 20260508161840 | 15 | 342 | 1.6 | 6.4 | 0.00 | 0.18 | 0.03 | 48 | 1013.7 |
| 20260508160353 | 15 | 316 | 1.6 | 6.4 | 0.00 | 0.18 | 0.03 | 51 | 1013.8 |
| 20260508154831 | 15 | 34 | 3.2 | 6.4 | 0.00 | 0.20 | 0.03 | 51 | 1013.9 |
| 20260508153327 | 14 | 29 | 0.0 | 3.2 | 0.00 | 0.20 | 0.03 | 56 | 1014.0 |
| 20260508151845 | 13 | 280 | 0.0 | 4.8 | 0.00 | 0.20 | 0.03 | 54 | 1014.1 |
| 20260508150329 | 12 | 282 | 0.0 | 3.2 | 0.00 | 0.20 | 0.03 | 61 | 1014.2 |
| 20260508144841 | 10 | 171 | 0.0 | 1.6 | 0.00 | 0.23 | 0.03 | 64 | 1014.2 |
| 20260508143344 | 8 | 227 | 0.0 | 3.2 | 0.00 | 0.23 | 0.03 | 70 | 1014.2 |
| 20260508141835 | 6 | 132 | 0.0 | 0.0 | 0.00 | 0.23 | 0.03 | 78 | 1014.3 |
| 20260508140336 | 5 | 158 | 0.0 | 3.2 | 0.00 | 0.23 | 0.03 | 84 | 1014.3 |
| 20260508134838 | 4 | 225 | 0.0 | 0.0 | 0.00 | 0.23 | 0.03 | 86 | 1014.2 |
| 20260508133339 | 3 | 230 | 0.0 | 0.0 | 0.00 | 0.23 | 0.03 | 89 | 1014.2 |
| 20260508131858 | 2 | 237 | 0.0 | 0.0 | 0.00 | 0.23 | 0.03 | 91 | 1014.2 |
| 20260508130342 | 1 | 237 | 0.0 | 0.0 | 0.00 | 0.23 | 0.03 | 92 | 1014.2 |
| 20260508124837 | 1 | 238 | 0.0 | 0.0 | 0.00 | 0.23 | 0.03 | 91 | 1014.1 |
| 20260508123328 | 1 | 238 | 0.0 | 0.0 | 0.00 | 0.23 | 0.03 | 92 | 1013.9 |
| 20260508121849 | 1 | 238 | 0.0 | 0.0 | 0.00 | 0.23 | 0.03 | 92 | 1013.7 |
| 20260508120352 | 1 | 238 | 0.0 | 0.0 | 0.00 | 0.23 | 0.03 | 92 | 1013.5 |
| 20260508114835 | 1 | 238 | 0.0 | 0.0 | 0.00 | 0.23 | 0.03 | 91 | 1013.6 |
| 20260508113402 | 1 | 239 | 0.0 | 0.0 | 0.00 | 0.23 | 0.03 | 90 | 1013.5 |
| 20260508111840 | 1 | 240 | 0.0 | 0.0 | 0.00 | 0.23 | 0.03 | 90 | 1013.5 |
| 20260508110326 | 1 | 240 | 0.0 | 0.0 | 0.03 | 0.23 | 0.03 | 90 | 1013.3 |
| 20260508104834 | 1 | 240 | 0.0 | 0.0 | 0.03 | 0.23 | 0.03 | 90 | 1013.4 |
| 20260508103402 | 1 | 240 | 0.0 | 0.0 | 0.03 | 0.23 | 0.03 | 89 | 1013.4 |
| 20260508101835 | 2 | 240 | 0.0 | 0.0 | 0.03 | 0.23 | 0.03 | 89 | 1013.4 |
| 20260508100349 | 2 | 240 | 0.0 | 0.0 | 0.00 | 0.20 | 0.00 | 90 | 1013.1 |
| 20260508094827 | 1 | 240 | 0.0 | 0.0 | 0.00 | 0.20 | 0.00 | 90 | 1013.1 |
| 20260508093352 | 2 | 222 | 0.0 | 0.0 | 0.00 | 0.20 | 0.00 | 91 | 1013.1 |
| 20260508091839 | 2 | 232 | 0.0 | 0.0 | 0.00 | 0.20 | 0.00 | 90 | 1013.1 |
| 20260508090333 | 2 | 232 | 0.0 | 0.0 | 0.00 | 0.20 | 0.00 | 90 | 1013.2 |
| 20260508084826 | 2 | 226 | 0.0 | 0.0 | 0.00 | 0.20 | 0.00 | 91 | 1013.2 |
| 20260508083344 | 2 | 248 | 0.0 | 1.6 | 0.00 | 0.20 | 0.00 | 92 | 1013.2 |
| 20260508081857 | 2 | 205 | 0.0 | 0.0 | 0.00 | 0.20 | 0.00 | 92 | 1013.4 |
| 20260508080351 | 2 | 241 | 0.0 | 0.0 | 0.00 | 0.20 | 0.00 | 93 | 1013.6 |
| 20260508074853 | 2 | 241 | 0.0 | 0.0 | 0.00 | 0.20 | 0.00 | 93 | 1013.6 |
| 20260508073354 | 3 | 241 | 0.0 | 0.0 | 0.00 | 0.20 | 0.00 | 91 | 1013.7 |
| 20260508071840 | 3 | 241 | 0.0 | 0.0 | 0.00 | 0.20 | 0.00 | 91 | 1013.6 |
| 20260508070343 | 3 | 241 | 0.0 | 0.0 | 0.00 | 0.20 | 0.00 | 90 | 1013.7 |
| 20260508064844 | 4 | 241 | 0.0 | 0.0 | 0.00 | 0.20 | 0.00 | 90 | 1013.6 |
| 20260508063344 | 5 | 241 | 0.0 | 0.0 | 0.00 | 0.20 | 0.00 | 90 | 1013.6 |
| 20260508061836 | 5 | 234 | 0.0 | 0.0 | 0.00 | 0.20 | 0.00 | 90 | 1013.6 |
| 20260508060330 | 5 | 235 | 0.0 | 0.0 | 0.00 | 0.20 | 0.00 | 88 | 1013.5 |
| 20260508054843 | 5 | 235 | 0.0 | 0.0 | 0.00 | 0.20 | 0.20 | 88 | 1013.3 |
| 20260508053400 | 6 | 235 | 0.0 | 0.0 | 0.00 | 0.20 | 0.20 | 87 | 1013.6 |
| 20260508051839 | 6 | 240 | 0.0 | 0.0 | 0.00 | 0.20 | 0.20 | 85 | 1013.6 |
| 20260508050356 | 6 | 244 | 0.0 | 0.0 | 0.00 | 0.20 | 0.20 | 85 | 1013.7 |
| 20260508044849 | 7 | 240 | 0.0 | 3.2 | 0.00 | 0.20 | 0.20 | 84 | 1013.7 |
| 20260508043340 | 7 | 339 | 0.0 | 0.0 | 0.00 | 0.20 | 0.20 | 84 | 1013.6 |
| 20260508041839 | 7 | 5 | 0.0 | 0.0 | 0.00 | 0.20 | 0.20 | 83 | 1013.9 |
| 20260508040343 | 7 | 5 | 0.0 | 6.4 | 0.00 | 0.20 | 0.20 | 83 | 1014.1 |
| 20260508034827 | 7 | 9 | 0.0 | 0.0 | 0.00 | 0.20 | 0.20 | 80 | 1013.8 |
| 20260508033353 | 7 | 132 | 0.0 | 0.0 | 0.00 | 0.20 | 0.20 | 80 | 1013.5 |
| 20260508031826 | 7 | 141 | 0.0 | 0.0 | 0.00 | 0.20 | 0.20 | 78 | 1013.2 |
| 20260508030356 | 7 | 234 | 0.0 | 3.2 | 0.00 | 0.20 | 0.20 | 78 | 1013.0 |
| 20260508024824 | 7 | 216 | 0.0 | 9.7 | 0.03 | 0.20 | 0.20 | 80 | 1013.0 |
| 20260508023326 | 7 | 212 | 0.0 | 4.8 | 0.03 | 0.20 | 0.20 | 83 | 1013.0 |
| 20260508021826 | 7 | 238 | 3.2 | 6.4 | 0.03 | 0.20 | 0.20 | 83 | 1013.0 |
| 20260508020326 | 8 | 323 | 0.0 | 11.3 | 0.03 | 0.20 | 0.20 | 76 | 1013.0 |
| 20260508014923 | 8 | 276 | 3.2 | 16.1 | 0.00 | 0.18 | 0.18 | 72 | 1012.9 |
| 20260508013405 | 10 | 294 | 3.2 | 17.7 | 0.00 | 0.18 | 0.18 | 69 | 1012.6 |
| 20260508011858 | 11 | 332 | 4.8 | 12.9 | 0.00 | 0.18 | 0.18 | 57 | 1012.3 |
| 20260508010356 | 12 | 348 | 0.0 | 3.2 | 0.00 | 0.18 | 0.18 | 59 | 1011.8 |
| 20260508004837 | 13 | 277 | 0.0 | 3.2 | 0.00 | 0.18 | 0.18 | 58 | 1011.6 |
| 20260508003328 | 13 | 302 | 0.0 | 3.2 | 0.00 | 0.18 | 0.18 | 58 | 1011.3 |
| 20260508001915 | 13 | 342 | 0.0 | 3.2 | 0.00 | 0.18 | 0.18 | 54 | 1011.2 |
| 20260508000339 | 13 | 274 | 0.0 | 3.2 | 0.00 | 0.18 | 0.18 | 51 | 1011.1 |
| 20260507234828 | 14 | 291 | 0.0 | 4.8 | 0.00 | 0.18 | 0.18 | 52 | 1011.1 |
| 20260507233325 | 13 | 294 | 0.0 | 6.4 | 0.00 | 0.18 | 0.18 | 55 | 1011.1 |
| 20260507231859 | 14 | 355 | 0.0 | 6.4 | 0.00 | 0.18 | 0.18 | 55 | 1011.1 |
| 20260507230340 | 13 | 302 | 0.0 | 6.4 | 0.00 | 0.18 | 0.18 | 54 | 1011.1 |
| 20260507224843 | 13 | 312 | 0.0 | 8.0 | 0.00 | 0.18 | 0.18 | 57 | 1011.2 |
| 20260507223353 | 13 | 313 | 1.6 | 6.4 | 0.00 | 0.18 | 0.18 | 54 | 1011.2 |
| 20260507221846 | 14 | 273 | 0.0 | 4.8 | 0.00 | 0.18 | 0.18 | 55 | 1011.4 |
| 20260507220331 | 14 | 269 | 1.6 | 9.7 | 0.00 | 0.18 | 0.18 | 55 | 1011.7 |
| 20260507214831 | 13 | 312 | 1.6 | 12.9 | 0.00 | 0.18 | 0.18 | 56 | 1011.8 |
| 20260507213417 | 14 | 44 | 0.0 | 11.3 | 0.00 | 0.18 | 0.18 | 57 | 1011.8 |
| 20260507211841 | 12 | 292 | 1.6 | 8.0 | 0.00 | 0.18 | 0.18 | 60 | 1012.0 |
| 20260507210330 | 12 | 242 | 1.6 | 14.5 | 0.00 | 0.18 | 0.18 | 66 | 1012.4 |
| 20260507204843 | 11 | 279 | 1.6 | 11.3 | 0.00 | 0.18 | 0.18 | 73 | 1012.4 |
| 20260507203351 | 10 | 325 | 3.2 | 17.7 | 0.00 | 0.18 | 0.18 | 74 | 1012.4 |
| 20260507201853 | 10 | 355 | 4.8 | 16.1 | 0.00 | 0.18 | 0.18 | 74 | 1012.4 |
| 20260507200341 | 10 | 348 | 3.2 | 9.7 | 0.00 | 0.18 | 0.18 | 75 | 1012.3 |
| 20260507194838 | 10 | 290 | 3.2 | 12.9 | 0.00 | 0.18 | 0.18 | 74 | 1012.4 |
| 20260507193341 | 10 | 271 | 3.2 | 19.3 | 0.00 | 0.18 | 0.18 | 73 | 1012.4 |
| 20260507191856 | 10 | 279 | 1.6 | 14.5 | 0.00 | 0.18 | 0.18 | 75 | 1012.4 |
| 20260507190358 | 10 | 355 | 3.2 | 9.7 | 0.03 | 0.18 | 0.18 | 74 | 1012.4 |
| 20260507184852 | 10 | 335 | 1.6 | 9.7 | 0.03 | 0.18 | 0.18 | 78 | 1012.4 |
| 20260507183339 | 8 | 312 | 1.6 | 6.4 | 0.03 | 0.18 | 0.18 | 83 | 1012.3 |
| 20260507181826 | 8 | 271 | 1.6 | 12.9 | 0.03 | 0.18 | 0.18 | 82 | 1012.3 |
| 20260507180404 | 9 | 20 | 1.6 | 14.5 | 0.00 | 0.15 | 0.15 | 79 | 1012.3 |
| 20260507174834 | 9 | 340 | 0.0 | 4.8 | 0.05 | 0.15 | 0.15 | 86 | 1012.0 |
| 20260507173334 | 7 | 257 | 0.0 | 4.8 | 0.05 | 0.15 | 0.15 | 89 | 1012.0 |